This is the latest recevied weather packets stored in our database for station/object K1WJY. If no packets are shown the sender has not sent any weather packets the latest 10 day(s).
| Time | Temp. | Humidity | Pressure | Rain* | Wind** | Luminosity | Snow |
|---|---|---|---|---|---|---|---|
| 1777762130 | 7.78° C | 91% | 1014.3 hPa | 0 mm | - | 18 W/m² | - |
| 1777761825 | 7.78° C | 90% | 1014.4 hPa | 0 mm | - | 22 W/m² | - |
| 1777761523 | 7.78° C | 90% | 1014.6 hPa | 0 mm | - | 23 W/m² | - |
| 1777761221 | 7.78° C | 89% | 1014.7 hPa | 0 mm | - | 25 W/m² | - |
| 1777760918 | 7.78° C | 88% | 1014.6 hPa | 0 mm | - | 35 W/m² | - |
| 1777760616 | 7.78° C | 89% | 1014.5 hPa | 0 mm | - | 42 W/m² | - |
| 1777760311 | 7.78° C | 89% | 1014.8 hPa | 0 mm | - | 45 W/m² | - |
| 1777760008 | 7.78° C | 89% | 1014.9 hPa | 0 mm | - | 29 W/m² | - |
| 1777759705 | 7.78° C | 88% | 1015 hPa | 0 mm | - | 35 W/m² | - |
| 1777759401 | 7.78° C | 88% | 1015.1 hPa | 0 mm | - | 46 W/m² | - |
| 1777759098 | 7.78° C | 87% | 1015 hPa | 0 mm | - | 53 W/m² | - |
| 1777758795 | 7.78° C | 85% | 1015.1 hPa | 0 mm | - | 49 W/m² | - |
| 1777758492 | 7.78° C | 85% | 1014.9 hPa | 0 mm | - | 46 W/m² | - |
| 1777758188 | 7.78° C | 84% | 1014.9 hPa | 0 mm | - | 60 W/m² | - |
| 1777757886 | 7.78° C | 83% | 1015.2 hPa | 0 mm | - | 66 W/m² | - |
| 1777757583 | 8.33° C | 82% | 1015.1 hPa | 0 mm | - | 78 W/m² | - |
| 1777757282 | 8.33° C | 80% | 1015.2 hPa | 0 mm | - | 73 W/m² | - |
| 1777756979 | 8.33° C | 79% | 1015.2 hPa | 0 mm | - | 85 W/m² | - |
| 1777756675 | 8.33° C | 77% | 1015.1 hPa | 0 mm | - | 99 W/m² | - |
| 1777756372 | 8.89° C | 76% | 1015 hPa | 0 mm | - | 113 W/m² | - |
| 1777756069 | 8.89° C | 74% | 1014.9 hPa | 0 mm | - | 119 W/m² | - |
| 1777755767 | 8.89° C | 73% | 1014.7 hPa | 0 mm | - | 138 W/m² | - |
| 1777755464 | 8.89° C | 70% | 1014.9 hPa | 0 mm | - | 134 W/m² | - |
| 1777755160 | 8.89° C | 68% | 1015.2 hPa | 0 mm | - | 122 W/m² | - |
| 1777754858 | 8.89° C | 66% | 1015.3 hPa | 0 mm | - | 150 W/m² | - |
* Rain latest hour (hover to see other rain measurements)
** Current wind speed in m/s (hover to see current wind gust speed)